Home   Weather   Bergisch Gladbach   Past weeks

Flag for Germany Past Weather in Bergisch Gladbach, North Rhine-Westphalia, Germany — Yesterday and Last 2 Weeks

Now
30 °F

Passing clouds.


Feels Like: 25 °F
Forecast: 20 / 32 °F
Wind: 5 mph from North

Location: Koeln / Bonn

Current Time: Jan 16, 2017 at 6:22:37 pm

Latest Report: Jan 16, 2017 at 5:50 pm


Visibility: N/A

Pressure: 30.36 "Hg

Humidity: 80%

Dew Point: 25 °F

Location of Bergisch GladbachLocation

Past Weather in Bergisch Gladbach — Graph

°F

Bergisch Gladbach Temperature Yesterday

Maximum temperature yesterday: 36 °F (at 12:20 pm)
Minimum temperature yesterday: 32 °F (at 3:20 am)
Average temperature yesterday: 34 °F

High & Low Weather Summary for the Past Weeks

 TemperatureHumidityPressure
High46 °F (Jan 11, 4:20 pm)100% (Jan 2, 1:20 am)30.74 "Hg (Jan 2, 1:20 am)
Low14 °F (Jan 6, 5:50 am)51% (Jan 5, 3:20 pm)28.97 "Hg (Jan 13, 1:20 am)
Average34 °F88%30.11 "Hg
* Reported Jan 1 5:20 pm — Jan 16 5:20 pm, Bergisch Gladbach, Weather by CustomWeather, © 2017

Note: Actual official high and low records may vary slightly from our data, if they occured in-between our weather recording intervals... More about our weather records

Advertising

Bergisch Gladbach Weather History for the Previous 24 Hours

Scroll right to see more
 ConditionsComfort  
Time TempWeatherWind HumidityBarometerVisibility
5:20 pm
Mon, Jan 16
30 °FPassing clouds.2 mph80%30.36 "HgN/A
4:50 pm32 °FPassing clouds.3 mph69%30.36 "HgN/A
4:20 pm34 °FPassing clouds.7 mph70%30.36 "HgN/A
3:50 pm34 °FPassing clouds.5 mph70%30.33 "HgN/A
3:20 pm36 °FPassing clouds.8 mph65%30.33 "HgN/A
2:50 pm36 °FScattered clouds.5 mph65%30.33 "HgN/A
2:20 pm36 °FScattered clouds.6 mph65%30.33 "HgN/A
1:50 pm36 °FScattered clouds.5 mph70%30.30 "HgN/A
1:20 pm34 °FScattered clouds.3 mph75%30.30 "HgN/A
12:50 pm34 °FScattered clouds.6 mph81%30.30 "HgN/A
12:20 pm36 °FScattered clouds.6 mph70%30.30 "HgN/A
11:50 am36 °FScattered clouds.6 mph81%30.30 "HgN/A
11:20 am34 °FBroken clouds.3 mph87%30.30 "Hg4 mi
10:50 am34 °FBroken clouds.2 mph87%30.30 "Hg4 mi
10:20 am34 °FFog.2 mph93%30.30 "Hg2 mi
9:50 am32 °FIce fog.3 mph100%30.27 "Hg2 mi
9:20 am32 °FIce fog.No wind100%30.27 "Hg2 mi
8:50 am32 °FSnow flurries. Ice fog.1 mph93%30.27 "Hg2 mi
8:20 am32 °FIce fog.1 mph93%30.27 "Hg3 mi
7:50 am32 °FPassing clouds.1 mph93%30.24 "Hg4 mi
7:20 am32 °FPassing clouds.2 mph93%30.24 "Hg4 mi
6:50 am32 °FPartly cloudy.1 mph93%30.24 "Hg5 mi
6:20 am32 °FLow clouds.2 mph93%30.24 "Hg5 mi
5:50 am32 °FPassing clouds.No wind93%30.21 "Hg5 mi
5:20 am32 °FSnow flurries. Passing clouds.1 mph93%30.21 "Hg4 mi
4:50 am32 °FSnow flurries. Passing clouds.No wind93%30.21 "Hg4 mi
4:20 am32 °FSnow flurries. Passing clouds.2 mph93%30.21 "Hg4 mi
3:50 am32 °FSnow flurries. Partly cloudy.2 mph93%30.21 "HgN/A
3:20 am32 °FPassing clouds.2 mph93%30.21 "HgN/A
2:50 am32 °FPartly cloudy.2 mph93%30.21 "HgN/A
2:20 am34 °FPartly cloudy.1 mph87%30.21 "HgN/A
1:50 am34 °FPassing clouds.3 mph87%30.21 "HgN/A
1:20 am34 °FPassing clouds.6 mph87%30.21 "HgN/A
12:50 am34 °FPassing clouds.5 mph93%30.21 "HgN/A
12:20 am34 °FPassing clouds.1 mph93%30.21 "HgN/A
11:50 pm
Sun, Jan 15
34 °FPassing clouds.No wind93%30.21 "HgN/A
11:20 pm34 °FPartly cloudy.No wind93%30.21 "HgN/A
10:50 pm34 °FPassing clouds.5 mph93%30.21 "HgN/A
10:20 pm34 °FPassing clouds.3 mph93%30.18 "HgN/A
9:50 pm34 °FPartly cloudy.3 mph93%30.18 "HgN/A
9:20 pm34 °FPassing clouds.3 mph93%30.18 "HgN/A
8:50 pm34 °FPartly cloudy.3 mph93%30.18 "HgN/A
8:20 pm34 °FPartly cloudy.3 mph93%30.18 "HgN/A
7:50 pm34 °FPartly cloudy.3 mph93%30.18 "HgN/A
7:20 pm34 °FPartly cloudy.3 mph93%30.18 "HgN/A
6:50 pm34 °FPassing clouds.3 mph93%30.18 "HgN/A
6:20 pm34 °FPassing clouds.5 mph93%30.15 "HgN/A
Weather by CustomWeather, © 2017

See weather overviewHow to use our weather pages